Weather History for Milton, FL

Change the Weather History Date:

Friday, December 28, 2012

  Actual Average (KNSE) Record (KNSE)
Temperature  
Mean Temperature 50 °F -  
Max Temperature 64 °F 58 °F 80 °F (2008)
Min Temperature 37 °F 41 °F 24 °F (2010)
Degree Days  
Heating Degree Days 14    
Moisture  
Dew Point 49 °F    
Average Humidity 84    
Maximum Humidity 96    
Minimum Humidity 69    
Precipitation  
Precipitation 1.22 in - - ()
Sea Level Pressure  
Sea Level Pressure 29.89 in    
Wind  
Wind Speed 8 mph (East)    
Max Wind Speed 17 mph    
Max Gust Speed -    
Visibility 8 miles    
Events Rain    
Averages and records for this station are not official NWS values.
T = Trace of Precipitation, MM = Missing Value Source: NWS Daily Summary

Daily Weather History Graph

Daily Weather History Graph

Search for Another Location

Airport:

Trip Planner

Search our weather history database for the weather conditions in past years. The results will help you decide how hot, cold, wet, or windy it might be!

Date:

Astronomy

Dec. 28, 2012 Rise Set
Actual Time 6:44 AM CST 4:55 PM CST
Civil Twilight 6:18 AM CST 5:21 PM CST
Nautical Twilight 5:47 AM CST 5:52 PM CST
Astronomical Twilight 5:18 AM CST 6:21 PM CST
Moon 5:27 PM CST (12/28) 6:41 AM CST (12/28)
Length of Visible Light 11h 03m
Length of Day
10h 10m
Full, 100% of the Moon is Illuminated
Dec 28
Full
Jan 4
Last Quarter
Jan 11
New
Jan 18
First Quarter
Jan 26
Full

Hourly Weather History & Observations

Time (CST) Temp. Windchill Dew Point Humidity Pressure Visibility Wind Dir Wind Speed Gust Speed Precip Events Conditions
12:56 AM 37.9 °F 32.1 °F 33.1 °F 83% 30.04 in 10.0 mi East 8.1 mph - N/A   Clear
1:56 AM 37.9 °F 32.7 °F 33.1 °F 83% 30.05 in 10.0 mi East 6.9 mph - N/A   Clear
2:56 AM 37.0 °F 33.3 °F 33.1 °F 86% 30.06 in 10.0 mi ENE 4.6 mph - N/A   Clear
3:56 AM 37.0 °F 34.5 °F 33.1 °F 86% 30.04 in 10.0 mi East 3.5 mph - N/A   Clear
4:56 AM 37.9 °F 34.4 °F 32.0 °F 79% 30.04 in 10.0 mi East 4.6 mph - N/A   Clear
5:56 AM 37.9 °F 32.1 °F 33.1 °F 83% 30.03 in 10.0 mi East 8.1 mph - N/A   Partly Cloudy
6:56 AM 37.9 °F 30.9 °F 33.1 °F 83% 29.99 in 10.0 mi ESE 10.4 mph - N/A   Clear
7:56 AM 42.1 °F 37.7 °F 36.0 °F 79% 30.03 in 10.0 mi NNW 6.9 mph - N/A   Clear
8:56 AM 46.0 °F 42.5 °F 39.0 °F 76% 30.02 in 10.0 mi East 6.9 mph - N/A   Clear
9:56 AM 48.0 °F - 41.0 °F 77% 30.00 in 10.0 mi East 6.9 mph - N/A   Clear
10:56 AM 53.1 °F - 44.1 °F 71% 29.98 in 10.0 mi East 6.9 mph - N/A   Partly Cloudy
11:10 AM 53.6 °F - 44.6 °F 72% 29.99 in 10.0 mi East 6.9 mph - N/A   Mostly Cloudy
11:23 AM 53.6 °F - 44.6 °F 72% 29.98 in 10.0 mi East 9.2 mph - N/A   Mostly Cloudy
11:52 AM 55.4 °F - 46.4 °F 72% 29.97 in 10.0 mi East 5.8 mph - N/A   Mostly Cloudy
11:56 AM 55.9 °F - 46.0 °F 69% 29.93 in 10.0 mi East 5.8 mph - N/A   Mostly Cloudy
12:56 PM 57.0 °F - 48.0 °F 72% 29.88 in 10.0 mi East 10.4 mph - N/A   Overcast
1:56 PM 57.9 °F - 50.0 °F 75% 29.87 in 10.0 mi ESE 10.4 mph - N/A   Overcast
2:53 PM 57.2 °F - 50.0 °F 77% 29.89 in 10.0 mi East 8.1 mph - N/A   Overcast
2:56 PM 57.9 °F - 50.0 °F 75% 29.86 in 10.0 mi ESE 8.1 mph - N/A   Overcast
3:56 PM 59.0 °F - 53.1 °F 81% 29.84 in 10.0 mi ESE 12.7 mph - N/A   Overcast
4:12 PM 59.0 °F - 53.6 °F 82% 29.87 in 10.0 mi SE 13.8 mph - N/A   Overcast
4:56 PM 57.9 °F - 53.1 °F 84% 29.83 in 10.0 mi SE 12.7 mph - N/A   Overcast
5:32 PM 57.2 °F - 55.4 °F 94% 29.85 in 7.0 mi SE 11.5 mph - N/A   Overcast
5:45 PM 57.2 °F - 55.4 °F 94% 29.84 in 7.0 mi ESE 12.7 mph - N/A   Overcast
5:56 PM 57.9 °F - 55.9 °F 93% 29.81 in 6.0 mi SE 12.7 mph - N/A   Overcast
6:56 PM 59.0 °F - 55.9 °F 90% 29.77 in 6.0 mi SE 17.3 mph - 0.04 in Rain Light Rain
7:56 PM 59.0 °F - 57.0 °F 93% 29.76 in 9.0 mi ESE 10.4 mph - 0.07 in Rain Light Rain
8:25 PM 60.8 °F - 59.0 °F 94% 29.78 in 6.0 mi NNE 3.5 mph - 0.04 in Rain Rain
8:56 PM 60.1 °F - 59.0 °F 96% 29.72 in 2.5 mi Variable 3.5 mph - 0.22 in Rain Heavy Rain
9:05 PM 60.8 °F - 59.0 °F 94% 29.75 in 3.0 mi SE 5.8 mph - 0.11 in Rain Heavy Rain
9:56 PM 61.0 °F - 59.0 °F 93% 29.77 in 2.5 mi NW 6.9 mph - 0.56 in Rain Heavy Rain
10:06 PM 62.6 °F - 60.8 °F 94% 29.79 in 1.8 mi Variable 3.5 mph - 0.20 in Rain Heavy Rain
10:15 PM 62.6 °F - 60.8 °F 94% 29.78 in 3.0 mi Variable 4.6 mph - 0.28 in Rain Light Rain
10:30 PM 64.4 °F - 62.6 °F 94% 29.78 in 10.0 mi Variable 3.5 mph - 0.29 in Rain Rain
10:56 PM 64.9 °F - 63.0 °F 93% 29.75 in 9.0 mi Variable 4.6 mph - 0.33 in Rain Light Rain
11:56 PM 64.9 °F - 62.1 °F 90% 29.74 in 10.0 mi WNW 6.9 mph - 0.00 in   Overcast